IRIDIUM 33 DEB

Last updated on Wed Sep 09 2026 00:02:32 GMT+0000 (Coordinated Universal Time)

1 46974U 97051ACG 26250.53334582 .00004613 00000+0 11460-2 0 9997 2 46974 86.3013 347.3689 0084581 13.7953 346.5533 14.49459353613968
UTC large
Height (km)
Speed (km/s)
/
Latitude / Longitude
Inclination (degrees)
Orbital Period (minutes)
Azimuth
Elevation
Range (km)
Doppler Factor

Next 0 passes for location: London (51.5072 / 0.1276)

No passes found over London.
IRIDIUM 33 DEB